Barter Island, AK

4:32 AM AKDT on June 26, 2017 (GMT -0800)
Barter Island LRRS

Weather History for PABA - January, 2013

Change the Weather History Date:

Thursday, January 10, 2013

  Actual Average Record
Temperature  
Mean Temperature -18 °F -  
Max Temperature -23 °F 0 °F 32 °F (2011)
Min Temperature -22 °F -11 °F -27 °F (2008)
Degree Days  
Heating Degree Days 82    
Moisture  
Dew Point -24 °F    
Average Humidity 78    
Maximum Humidity 84    
Minimum Humidity 77    
Precipitation  
Precipitation 0.00 in - - ()
Sea Level Pressure  
Sea Level Pressure 30.13 in    
Wind  
Wind Speed 8 mph (WSW)    
Max Wind Speed 12 mph    
Max Gust Speed -    
Visibility 9 miles    
Events      
Averages and records for this station are not official NWS values.
T = Trace of Precipitation, MM = Missing Value Source: NWS Daily Summary

Daily Weather History Graph

Daily Weather History Graph

Search for Another Location

Airport or City:

Trip Planner

Search our weather history database for the weather conditions in past years. The results will help you decide how hot, cold, wet, or windy it might be!

Date:

Astronomy

Jan. 10, 2013 Rise Set
Actual Time 12:09 PM AKST 1:14 PM AKST
Civil Twilight 10:06 AM AKST 3:18 PM AKST
Nautical Twilight 8:29 AM AKST 4:55 PM AKST
Astronomical Twilight 7:11 AM AKST 6:13 PM AKST
Moon No Moon Rise No Moon Set
Length of Visible Light 5h 12m
Length of Day
1h 04m
Waning Crescent, 1% of the Moon is Illuminated
Jan 10
Waning Crescent
Jan 11
New
Jan 18
First Quarter
Jan 26
Full
Feb 3
Last Quarter

Hourly Weather History & Observations

Time (AKST) Temp. Windchill Dew Point Humidity Pressure Visibility Wind Dir Wind Speed Gust Speed Precip Events Conditions
12:01 AM -16.6 °F -37.9 °F -20.2 °F 84% 30.13 in 3.0 mi West 11.5 mph - N/A   Haze
1:01 AM -15.0 °F -33.7 °F -20.0 °F 78% 30.13 in 5.0 mi West 9.2 mph - N/A   Haze
2:01 AM -15.0 °F -33.7 °F -20.0 °F 78% 30.12 in 10.0 mi West 9.2 mph - N/A   Clear
3:01 AM -16.1 °F -35.0 °F -20.9 °F 79% 30.11 in 10.0 mi West 9.2 mph - N/A   Clear
4:01 AM -18.0 °F -37.5 °F -23.1 °F 78% 30.11 in 10.0 mi WSW 9.2 mph - N/A   Clear
5:01 AM -18.9 °F -37.2 °F -24.0 °F 78% 30.10 in 10.0 mi West 8.1 mph - N/A   Clear
6:01 AM -20.0 °F -35.3 °F -25.1 °F 78% 30.10 in 10.0 mi WSW 5.8 mph - N/A   Clear
7:01 AM -20.9 °F -38.1 °F -26.0 °F 77% 30.10 in 10.0 mi WSW 6.9 mph - N/A   Clear
8:01 AM -20.9 °F -36.4 °F -26.0 °F 77% 30.11 in 10.0 mi West 5.8 mph - N/A   Clear
9:01 AM -20.9 °F -31.7 °F -26.0 °F 77% 30.11 in 10.0 mi WSW 3.5 mph - N/A   Clear
10:01 AM -20.0 °F -35.3 °F -25.1 °F 78% 30.11 in 8.0 mi West 5.8 mph - N/A   Clear
11:01 AM -18.9 °F -34.0 °F -24.0 °F 78% 30.12 in 8.0 mi WSW 5.8 mph - N/A   Clear
12:01 PM -18.9 °F -34.0 °F -24.0 °F 78% 30.12 in 8.0 mi WSW 5.8 mph - N/A   Clear
1:01 PM -18.9 °F -34.0 °F -24.0 °F 78% 30.13 in 8.0 mi WSW 5.8 mph - N/A   Clear
2:01 PM -20.0 °F -37.1 °F -25.1 °F 78% 30.13 in 8.0 mi WSW 6.9 mph - N/A   Clear
3:01 PM -20.0 °F -37.1 °F -25.1 °F 78% 30.14 in 7.0 mi WSW 6.9 mph - N/A   Clear
4:01 PM -18.9 °F -32.0 °F -24.0 °F 78% 30.15 in 9.0 mi WSW 4.6 mph - N/A   Clear
5:01 PM -18.9 °F -29.5 °F -24.0 °F 78% 30.16 in 10.0 mi West 3.5 mph - N/A   Clear
6:01 PM -20.0 °F -33.3 °F -25.1 °F 78% 30.17 in 10.0 mi WSW 4.6 mph - N/A   Clear
7:01 PM -18.9 °F -34.0 °F -24.0 °F 78% 30.17 in 10.0 mi WSW 5.8 mph - N/A   Clear
8:01 PM -18.9 °F -34.0 °F -24.0 °F 78% 30.17 in 8.0 mi West 5.8 mph - N/A   Clear
9:01 PM -20.0 °F -33.3 °F -25.1 °F 78% 30.17 in 10.0 mi WSW 4.6 mph - N/A   Clear
10:01 PM -20.0 °F -30.7 °F -25.1 °F 78% 30.18 in 10.0 mi West 3.5 mph - N/A   Clear
11:01 PM -22.0 °F -39.4 °F -27.0 °F 77% 30.19 in 9.0 mi SW 6.9 mph - N/A   Clear